Regional Weather Roundup
Issued by NWS

Home | Current Version | Previous Version | Text Only | Print | Product List | Glossary On
Versions: 1 2 3 4 5 6 7 8 9 10 11 12 13 14 15 16 17 18 19 20 21 22 23 24 25 26 27 28 29 30 31 32 33 34 35 36 37 38 39 40 41 42 43 44 45 46 47 48 49 50
000
ASUS43 KTOP 191008
RWRKS

WEATHER ROUNDUP FOR KANSAS
NATIONAL WEATHER SERVICE GOODLAND KS
500 AM CDT THU OCT 19 2017

NOTE:  "FAIR" INDICATES FEW OR NO CLOUDS BELOW 12,000 FEET WITH NO
SIGNIFICANT WEATHER AND/OR OBSTRUCTIONS TO VISIBILITY.

KSZ001>006-013>018-027>032-041>047-191100-
NORTHWEST KANSAS

CITY           SKY/WX    TMP DP  RH WIND       PRES   REMARKS
GOODLAND       CLOUDY    46  35  65 S7        30.07F
HAYS           CLEAR     43  38  82 N6        30.04S
HILL CITY      CLEAR     40  37  89 CALM      30.06S
RUSSELL        CLEAR     43  40  89 S5        30.03S
$$

KSZ061>065-074>080-084>089-191100-
SOUTHWEST KANSAS

CITY           SKY/WX    TMP DP  RH WIND       PRES   REMARKS
DODGE CITY     CLEAR     45  43  93 CALM      30.05F
ELKHART          N/A     48  41  77 W5          N/A
GARDEN CITY    CLEAR     49  38  65 E5        30.05F
GREAT BEND     CLEAR     46  43  89 CALM      30.04S
LIBERAL        CLOUDY    49  44  83 CALM      30.05
PRATT          CLEAR     49  43  81 S3        30.05S
$$

KSZ066>073-081>083-090>101-191100-
SOUTHEAST KANSAS

CITY           SKY/WX    TMP DP  RH WIND       PRES   REMARKS
CHANUTE        CLEAR     53  47  79 S9        30.10S
COFFEYVILLE    CLEAR     50  46  86 S6        30.11S
HUTCHINSON     CLEAR     49  47  93 E3        30.05S
MEDICINE LODGE   N/A     55  45  68 E8        30.05S
NEWTON         CLEAR     54  47  77 S10       30.06S
PARSONS        CLEAR     53  47  79 S3        30.12S
WICHITA INTL   CLEAR     49  47  93 S7        30.06S
WICHITA JABRA  CLEAR     53  48  83 S6        30.06S
WICHITA MCCONL CLEAR     53  46  76 S6        30.06S
WINFIELD       CLEAR     52  48  86 SE5       30.09S
$$

KSZ007>012-019>026-033>040-048>060-102>105-191100-
NORTHEAST KANSAS

CITY           SKY/WX    TMP DP  RH WIND       PRES   REMARKS
CONCORDIA      CLEAR     45  45 100 CALM      30.02F
EMPORIA        CLEAR     51  46  83 S5        30.07S
LAWRENCE       CLEAR     45  45 100 CALM      30.08S
MANHATTAN      CLEAR     44  44 100 CALM      30.05R FOG
MARYSVILLE     CLEAR     50  48  93 SE6       30.04R
OLATHE IND     CLEAR     50  47  89 S5        30.09S
OLATHE EXE     CLEAR     52  48  86 S5        30.08S
SALINA         CLEAR     51  48  89 S5        30.04S
TOPEKA BILLARD CLEAR     49  48  97 CALM      30.07R
TOPEKA FORBES  CLEAR     49  47  93 CALM      30.06S
$$




USA.gov is the U.S. government's official web portal to all federal, state and local government web resources and services.